Flag for Norway Weather past 2 weeks in Vestby, Norway

Now
59 °F

Passing clouds.


Feels Like: 57 °F
Forecast: 49 / 64 °F
Wind: 10 mph from Southwest

Location: Rygge

Current Time: Aug 2, 2015 at 2:38:22 AM

Latest Report: Aug 2, 2015 at 1:50 AM


Visibility: N/A

Pressure: 29.98 "Hg

Humidity: 77%

Dew point: 52 °F

Location of VestbyLocation

Historic Weather in Vestby — Graph

°F

Vestby temperature yesterday

Maximum temperature yesterday: 63 °F (at 12:20 PM)
Minimum temperature yesterday: 48 °F (at 2:20 AM)
Average temperature yesterday: 57 °F

Past Weeks' High & Low Weather Summary

 TemperatureHumidityPressure
High72 °F (Jul 20, 2:20 PM)100% (Jul 25, 3:50 AM)29.98 "Hg (Jul 25, 3:50 AM)
Low48 °F (Jul 25, 4:50 AM)35% (Jul 23, 6:50 PM)29.39 "Hg (Jul 26, 10:20 AM)
Average59 °F78%29.64 "Hg
* Reported Jul 18 1:20 AM — Aug 2 1:20 AM, Vestby, Weather by CustomWeather, © 2015

Note: Actual official high and low records may vary slightly from our data, if they occured in-between our weather recording intervals... More about our weather records

Advertising

Vestby weather history for previous 24 hours

 ConditionsComfort  
Time TempWeatherWind HumidityBarometerVisibility
1:20 AM
Sun, Aug 2
57 °FPassing clouds.9 mph82%29.98 "HgN/A
12:50 AM57 °FPassing clouds.10 mph82%29.98 "HgN/A
11:50 PM
Sat, Aug 1
59 °FClear.12 mph77%29.98 "Hg10 mi
11:20 PM59 °FClear.9 mph72%29.98 "Hg10 mi
10:50 PM59 °FClear.12 mph72%29.98 "Hg10 mi
10:20 PM57 °FSunny.9 mph77%29.98 "Hg10 mi
9:50 PM57 °FPassing clouds.9 mph77%29.98 "HgN/A
9:20 PM57 °FSunny.8 mph77%29.98 "Hg10 mi
8:50 PM59 °FSunny.10 mph72%29.98 "Hg10 mi
8:20 PM59 °FPassing clouds.12 mph77%29.98 "HgN/A
7:50 PM59 °FPassing clouds.13 mph82%29.98 "HgN/A
7:20 PM61 °FScattered clouds.14 mph77%29.98 "HgN/A
6:50 PM61 °FPassing clouds.17 mph72%29.98 "HgN/A
6:20 PM61 °FPassing clouds.16 mph72%29.98 "HgN/A
5:50 PM63 °FScattered clouds.16 mph68%29.98 "HgN/A
5:20 PM61 °FSunny.16 mph72%29.98 "Hg10 mi
4:50 PM61 °FSunny.17 mph68%29.98 "Hg10 mi
4:20 PM63 °FSunny.17 mph68%29.98 "Hg10 mi
3:50 PM63 °FPassing clouds.15 mph73%29.98 "HgN/A
3:20 PM63 °FSunny.17 mph59%29.98 "Hg10 mi
2:50 PM61 °FSunny.12 mph63%29.98 "Hg10 mi
2:20 PM61 °FSunny.15 mph63%29.98 "Hg10 mi
1:50 PM61 °FSunny.14 mph72%29.98 "Hg10 mi
1:20 PM63 °FSunny.12 mph68%29.98 "Hg10 mi
12:50 PM63 °FSunny.10 mph73%29.95 "Hg10 mi
12:20 PM63 °FPassing clouds.12 mph68%29.95 "HgN/A
11:50 AM61 °FScattered clouds.5 mph77%29.95 "HgN/A
11:20 AM59 °FPartly sunny.2 mph77%29.95 "HgN/A
10:50 AM59 °FPartly sunny.3 mph77%29.95 "HgN/A
10:20 AM59 °FPartly sunny.2 mph82%29.95 "HgN/A
9:20 AM57 °FPartly sunny.1 mph88%29.92 "HgN/A
8:50 AM57 °FPartly sunny.3 mph88%29.92 "HgN/A
8:20 AM55 °FPartly sunny.3 mph88%29.92 "HgN/A
7:50 AM54 °FPartly sunny.3 mph94%29.92 "HgN/A
7:20 AM52 °FPartly sunny.3 mph94%29.92 "HgN/A
6:50 AM50 °FPartly sunny.2 mph100%29.92 "HgN/A
6:20 AM50 °FPartly sunny.1 mph94%29.92 "HgN/A
5:50 AM48 °FLow clouds.2 mph100%29.92 "HgN/A
4:50 AM48 °FPassing clouds.No wind94%29.92 "HgN/A
4:20 AM48 °FPassing clouds.1 mph94%29.92 "HgN/A
3:50 AM48 °FPassing clouds.2 mph100%29.89 "HgN/A
3:20 AM48 °FPassing clouds.2 mph94%29.89 "HgN/A
2:50 AM48 °FPassing clouds.2 mph100%29.89 "HgN/A
2:20 AM48 °FCool.2 mph94%29.89 "HgN/A
Weather by CustomWeather, © 2015

See weather overviewHow to use our weather pages